Temp
-12 -12 -12 -12 -13 -14 -15 -15 -15 -15 -16 -18 -17 -18 -17 -17 -17 -16 -14 -14 -13 -13 -13 -12 -12 -11 -11 -10 -9 -8 -7 -8 -7 -7 -7 -6 -7 -7 -8 -7 -7 -8 -7 -7
-12 -13 -13 -13 -13 -14 -14 -15 -15 -15 -18 -18 -18 -18 -17 -17 -17 -17 -16 -15 -15 -14 -14 -14 -13 -13 -12 -11 -10 -9 -8 -8 -8 -7 -7 -7 -8 -9 -8 -8 -7 -8 -8 -8
-13 -13 -13 -13 -13 -14 -14 -15 -16 -16 -17 -18 -18 -18 -18 -17 -17 -16 -16 -15 -15 -15 -15 -15 -14 -14 -14 -13 -12 -11 -9 -9 -9 -8 -8 -7 -8 -9 -7 -8 -7 -8 -8 -8
-13 -13 -13 -14 -14 -14 -14 -15 -16 -16 -16 -16 -18 -17 -17 -17 -16 -16 -16 -16 -15 -15 -15 -15 -15 -14 -14 -13 -13 -13 -11 -10 -9 -9 -8 -7 -8 -9 -9 -6 -8 -8 -8 -8
-13 -13 -13 -14 -14 -15 -15 -15 -15 -15 -16 -16 -16 -18 -16 -16 -16 -16 -16 -16 -15 -15 -15 -15 -14 -14 -14 -13 -13 -13 -13 -11 -10 -10 -8 -7 -7 -8 -9 -8 -7 -8 -8 -9
-13 -13 -14 -14 -14 -15 -15 -16 -16 -16 -18 -16 -17 -17 -16 -17 -16 -16 -16 -16 -15 -14 -14 -14 -14 -14 -14 -14 -13 -14 -14 -13 -12 -11 -10 -9 -8 -8 -9 -9 -9 -9 -8 -8
-14 -14 -14 -14 -14 -15 -16 -16 -16 -16 -16 -17 -16 -16 -16 -15 -15 -16 -16 -16 -15 -15 -15 -14 -15 -14 -14 -14 -14 -14 -14 -14 -13 -12 -11 -10 -9 -8 -8 -8 -9 -7 -8 -8
-14 -13 -14 -15 -15 -15 -16 -16 -17 -17 -17 -16 -18 -16 -16 -17 -16 -16 -16 -16 -16 -15 -14 -15 -15 -14 -14 -15 -15 -15 -14 -14 -14 -13 -12 -11 -10 -9 -8 -8 -9 -4 -9 -9
-14 -14 -14 -15 -15 -16 -16 -17 -18 -17 -17 -16 -16 -16 -16 -17 -16 -16 -16 -16 -15 -15 -15 -16 -15 -14 -15 -15 -14 -14 -14 -14 -14 -14 -13 -12 -11 -10 -9 -9 -8 -9 -8 -8
-14 -13 -14 -15 -15 -16 -17 -17 -17 -18 -17 -17 -17 -17 -17 -16 -16 -16 -17 -17 -17 -16 -16 -16 -16 -15 -14 -15 -15 -15 -15 -15 -15 -15 -14 -14 -12 -10 -10 -9 -9 -6 -7 -8
-15 -15 -14 -15 -16 -16 -17 -18 -19 -18 -18 -17 -17 -17 -17 -16 -16 -17 -17 -16 -17 -17 -17 -16 -17 -16 -16 -15 -16 -15 -15 -15 -15 -15 -14 -14 -13 -11 -11 -10 -9 -10 -9 -8
-15 -15 -14 -15 -16 -17 -17 -18 -19 -18 -18 -18 -18 -17 -18 -17 -17 -17 -17 -17 -17 -18 -18 -17 -17 -17 -17 -17 -17 -17 -16 -15 -15 -15 -15 -15 -15 -13 -12 -10 -10 -10 -11 -11
-15 -15 -15 -15 -17 -18 -19 -18 -18 -19 -19 -19 -19 -17 -18 -18 -17 -17 -17 -18 -17 -17 -17 -17 -17 -17 -17 -17 -16 -17 -17 -16 -16 -16 -16 -15 -16 -15 -13 -11 -11 -11 -10 -11
-15 -15 -16 -17 -17 -18 -18 -18 -19 -19 -19 -18 -18 -18 -18 -18 -18 -17 -17 -17 -18 -17 -17 -17 -16 -17 -17 -17 -17 -17 -17 -16 -16 -16 -16 -16 -16 -16 -14 -13 -13 -11 -9 -10
-16 -15 -16 -17 -19 -19 -19 -18 -19 -19 -19 -19 -18 -18 -18 -18 -17 -17 -17 -17 -17 -17 -17 -17 -17 -17 -17 -16 -17 -17 -17 -17 -16 -16 -16 -15 -11 -15 -15 -14 -13 -12 -10 -9
-17 -16 -18 -18 -20 -20 -19 -19 -19 -19 -19 -19 -18 -18 -18 -18 -17 -17 -17 -17 -18 -17 -17 -17 -17 -17 -16 -17 -17 -17 -17 -17 -16 -16 -15 -16 -15 -16 -15 -15 -14 -12 -11 -10
-17 -18 -20 -19 -20 -20 -19 -19 -19 -19 -19 -18 -19 -19 -18 -18 -18 -17 -17 -17 -17 -17 -17 -17 -17 -17 -17 -17 -17 -17 -17 -17 -17 -17 -16 -17 -17 -16 -16 -15 -14 -12 -11 -11
-17 -20 -20 -19 -20 -19 -20 -20 -20 -19 -19 -19 -19 -19 -18 -17 -17 -17 -18 -17 -18 -17 -17 -17 -17 -17 -17 -17 -17 -17 -17 -17 -17 -16 -16 -17 -17 -17 -16 -15 -14 -14 -12 -10
-18 -18 -19 -20 -19 -19 -19 -19 -19 -19 -18 -19 -19 -18 -18 -18 -16 -17 -18 -17 -17 -17 -17 -17 -17 -17 -17 -17 -17 -17 -17 -17 -16 -17 -17 -17 -17 -17 -16 -15 -14 -13 -13 -11
-20 -19 -20 -21 -20 -19 -20 -20 -20 -19 -18 -19 -18 -18 -18 -18 -17 -17 -18 -18 -17 -17 -17 -17 -17 -17 -18 -17 -17 -17 -17 -16 -17 -17 -17 -17 -17 -16 -15 -15 -13 -12 -12 -12
-20 -20 -20 -20 -20 -19 -20 -20 -19 -19 -19 -19 -19 -18 -18 -18 -18 -17 -17 -17 -17 -17 -17 -17 -17 -18 -18 -17 -17 -17 -17 -16 -17 -17 -17 -17 -17 -17 -16 -15 -15 -13 -14 -13
-20 -20 -20 -20 -20 -20 -20 -20 -20 -19 -18 -18 -18 -18 -17 -17 -17 -17 -16 -16 -16 -16 -16 -17 -17 -18 -18 -17 -17 -16 -17 -17 -17 -17 -17 -17 -17 -17 -16 -14 -14 -13 -12 -12
-20 -20 -20 -20 -20 -21 -20 -20 -20 -18 -18 -18 -17 -17 -17 -17 -16 -16 -16 -16 -16 -16 -16 -16 -18 -18 -17 -18 -17 -17 -17 -17 -17 -17 -17 -17 -17 -15 -15 -14 -12 -12 -13 -13
-21 -20 -20 -20 -21 -20 -20 -20 -19 -18 -18 -17 -17 -17 -16 -16 -16 -16 -16 -16 -16 -16 -16 -17 -17 -17 -17 -17 -17 -17 -17 -17 -17 -17 -17 -17 -17 -16 -15 -13 -13 -13 -13 -13
-20 -20 -20 -20 -20 -19 -20 -19 -18 -18 -17 -17 -17 -16 -16 -16 -16 -16 -16 -16 -16 -16 -16 -17 -17 -17 -17 -17 -17 -17 -17 -17 -17 -17 -17 -17 -16 -16 -13 -13 -13 -12 -12 -12
-20 -20 -20 -20 -20 -19 -18 -18 -18 -17 -17 -17 -16 -16 -16 -16 -16 -16 -16 -16 -17 -16 -16 -17 -17 -17 -17 -16 -16 -17 -17 -17 -17 -17 -17 -16 -16 -15 -14 -13 -13 -12 -12 -12
Height
5783 5781 5776 5770 5764 5757 5752 5747 5741 5735 5731 5725 5721 5718 5714 5717 5717 5713 5715 5719 5722 5723 5726 5727 5736 5742 5746 5753 5757 5765 5776 5785 5787 5794 5801 5807 5807 5815 5822 5827 5832 5840 5841 5845
5780 5774 5771 5767 5761 5754 5746 5737 5730 5724 5720 5718 5711 5705 5706 5707 5706 5704 5703 5709 5714 5715 5716 5716 5723 5728 5732 5738 5741 5749 5763 5772 5775 5782 5789 5796 5804 5810 5815 5818 5821 5831 5832 5837
5773 5770 5765 5759 5754 5746 5740 5730 5721 5714 5710 5706 5702 5697 5698 5698 5694 5697 5697 5703 5708 5709 5709 5709 5712 5719 5722 5726 5728 5734 5745 5755 5760 5768 5776 5785 5792 5801 5809 5809 5814 5824 5825 5830
5768 5762 5757 5750 5743 5737 5731 5724 5715 5707 5702 5697 5698 5688 5691 5693 5693 5694 5690 5699 5703 5704 5704 5704 5705 5711 5715 5718 5720 5723 5729 5738 5743 5753 5763 5773 5781 5790 5799 5797 5808 5812 5817 5821
5761 5756 5750 5744 5737 5730 5724 5716 5709 5702 5698 5693 5693 5691 5688 5692 5695 5697 5697 5693 5697 5699 5700 5700 5701 5702 5707 5710 5713 5715 5718 5724 5729 5736 5749 5760 5769 5779 5786 5795 5794 5804 5809 5813
5753 5746 5741 5736 5730 5722 5715 5708 5703 5696 5694 5690 5691 5685 5685 5687 5685 5682 5688 5690 5690 5693 5694 5695 5696 5696 5697 5701 5705 5707 5710 5714 5719 5723 5733 5745 5756 5766 5774 5782 5787 5797 5801 5804
5747 5742 5735 5729 5724 5717 5710 5702 5696 5691 5689 5687 5681 5681 5681 5671 5678 5685 5684 5684 5686 5688 5688 5689 5689 5690 5691 5690 5695 5698 5701 5705 5709 5711 5720 5730 5740 5752 5763 5773 5777 5780 5785 5791
5737 5735 5727 5720 5714 5709 5704 5698 5690 5683 5681 5681 5679 5677 5683 5680 5675 5678 5679 5679 5681 5682 5681 5681 5681 5682 5683 5682 5684 5689 5694 5698 5702 5704 5709 5718 5726 5739 5753 5761 5769 5774 5778 5781
5729 5726 5721 5715 5708 5703 5697 5691 5687 5679 5677 5672 5675 5675 5672 5672 5671 5668 5671 5673 5673 5674 5673 5672 5674 5674 5675 5676 5678 5681 5685 5689 5694 5697 5700 5707 5714 5726 5739 5751 5760 5761 5764 5747
5722 5714 5714 5707 5701 5695 5687 5685 5681 5677 5669 5667 5669 5667 5663 5662 5660 5658 5664 5664 5666 5665 5664 5664 5663 5665 5667 5669 5670 5672 5678 5682 5685 5688 5693 5695 5703 5715 5727 5738 5744 5729 5747 5747
5712 5706 5708 5699 5694 5686 5683 5677 5674 5670 5666 5662 5660 5663 5660 5658 5655 5659 5659 5657 5656 5656 5654 5656 5656 5655 5657 5660 5663 5664 5669 5674 5677 5681 5685 5688 5692 5705 5715 5728 5730 5737 5726 5743
5703 5696 5692 5691 5686 5677 5673 5669 5665 5660 5659 5656 5653 5653 5656 5651 5652 5652 5647 5650 5648 5648 5647 5647 5648 5649 5653 5651 5653 5657 5661 5666 5671 5674 5677 5679 5683 5690 5703 5717 5721 5724 5736 5743
5694 5686 5680 5680 5677 5668 5664 5663 5659 5654 5649 5646 5644 5643 5647 5645 5646 5644 5639 5639 5636 5635 5636 5637 5641 5642 5642 5644 5646 5650 5655 5660 5663 5667 5669 5672 5676 5679 5690 5702 5714 5725 5731 5738
5681 5677 5670 5664 5660 5654 5652 5649 5645 5641 5637 5635 5634 5632 5637 5635 5635 5634 5631 5631 5629 5628 5629 5628 5632 5633 5634 5636 5639 5643 5647 5651 5655 5660 5663 5665 5670 5676 5681 5692 5704 5719 5727 5723
5669 5664 5657 5650 5647 5642 5638 5635 5633 5629 5627 5625 5627 5625 5626 5624 5622 5620 5619 5616 5614 5616 5620 5622 5623 5624 5626 5628 5632 5636 5639 5644 5649 5654 5660 5665 5660 5671 5675 5684 5698 5709 5718 5719
5661 5652 5645 5640 5637 5631 5627 5626 5622 5620 5619 5620 5619 5616 5615 5613 5608 5607 5605 5604 5604 5604 5608 5611 5612 5614 5618 5620 5624 5628 5631 5638 5644 5650 5655 5651 5648 5661 5670 5680 5691 5704 5713 5715
5650 5641 5636 5634 5629 5625 5623 5619 5616 5614 5614 5610 5609 5608 5604 5602 5599 5595 5592 5591 5593 5594 5596 5599 5600 5604 5609 5610 5613 5619 5624 5630 5636 5642 5646 5650 5652 5659 5665 5675 5687 5699 5708 5707
5639 5634 5629 5627 5623 5621 5619 5612 5610 5607 5606 5605 5601 5595 5592 5587 5585 5584 5582 5579 5580 5582 5585 5588 5591 5594 5596 5599 5603 5608 5616 5622 5630 5637 5642 5646 5650 5655 5664 5675 5681 5692 5702 5705
5631 5626 5619 5617 5615 5615 5614 5607 5603 5599 5602 5595 5591 5586 5581 5576 5573 5576 5568 5567 5569 5570 5571 5574 5576 5579 5583 5587 5592 5599 5608 5617 5626 5631 5636 5641 5647 5653 5661 5671 5676 5689 5699 5700
5627 5623 5617 5612 5608 5607 5608 5599 5596 5593 5589 5587 5579 5574 5568 5565 5561 5569 5556 5554 5554 5554 5556 5560 5563 5567 5570 5577 5583 5591 5603 5612 5617 5628 5633 5638 5642 5649 5660 5664 5670 5682 5693 5704
5620 5616 5612 5609 5604 5603 5598 5594 5591 5586 5581 5575 5569 5564 5560 5555 5550 5548 5545 5540 5537 5539 5542 5545 5550 5554 5560 5568 5576 5585 5597 5601 5617 5624 5631 5639 5642 5647 5654 5661 5669 5679 5690 5699
5613 5609 5607 5604 5600 5598 5591 5588 5582 5577 5571 5566 5561 5556 5551 5546 5541 5534 5529 5525 5521 5519 5524 5532 5540 5546 5552 5561 5570 5579 5589 5602 5615 5624 5631 5636 5639 5646 5654 5663 5677 5684 5692 5698
5609 5606 5602 5599 5596 5590 5585 5580 5574 5568 5563 5558 5554 5549 5544 5537 5533 5528 5524 5518 5513 5510 5511 5518 5530 5538 5547 5556 5565 5577 5587 5603 5614 5622 5629 5635 5640 5647 5656 5663 5677 5686 5693 5697
5603 5599 5596 5592 5592 5582 5578 5571 5565 5561 5558 5553 5548 5542 5538 5533 5529 5525 5518 5508 5502 5502 5506 5512 5522 5533 5544 5554 5565 5577 5592 5606 5614 5621 5628 5632 5639 5648 5654 5668 5677 5687 5693 5701
5596 5593 5590 5587 5581 5576 5571 5563 5559 5557 5552 5547 5543 5537 5534 5531 5528 5523 5518 5507 5498 5498 5503 5512 5523 5533 5545 5558 5569 5583 5596 5607 5615 5620 5625 5632 5641 5648 5659 5673 5683 5687 5695 5701
5593 5589 5584 5579 5574 5567 5562 5559 5556 5553 5548 5543 5538 5534 5531 5530 5528 5524 5518 5510 5505 5504 5511 5520 5528 5538 5551 5563 5576 5588 5599 5608 5616 5621 5626 5633 5643 5654 5669 5676 5683 5691 5698 5705
Wind_Speed
31 32 35 40 41 43 44 42 46 42 40 40 44 36 44 42 41 53 53 49 48 50 49 51 48 49 53 57 64 68 66 61 64 64 63 64 57 54 55 56 53 45 43 38
30 32 33 34 35 38 41 42 45 42 36 34 42 45 37 32 25 24 27 29 28 35 37 39 39 40 45 52 59 63 65 64 65 66 66 64 58 55 57 57 56 49 45 39
29 30 33 35 35 38 39 42 44 41 33 30 36 35 29 17 27 25 25 22 24 29 31 33 33 25 26 32 41 53 61 66 69 68 69 66 63 60 52 58 56 49 48 43
28 30 33 34 37 39 40 40 42 36 32 31 19 31 24 18 14 21 6 18 22 25 28 32 32 27 24 24 27 34 45 65 72 71 72 70 68 64 58 54 56 49 50 47
29 30 31 32 35 37 39 39 40 33 28 27 19 22 8 0 14 16 16 29 19 23 25 29 31 31 29 27 28 29 30 51 66 73 73 73 72 69 65 63 49 57 54 53
35 35 35 34 35 37 40 39 41 35 23 23 18 31 12 22 26 29 24 13 19 23 27 28 33 36 36 31 32 32 33 32 50 65 72 74 74 73 69 63 60 60 58 56
33 31 34 35 34 37 38 38 42 33 17 24 31 29 23 18 17 16 30 11 23 22 25 27 30 31 32 35 33 37 35 32 31 54 68 75 77 75 73 69 67 55 53 59
36 34 34 35 35 37 34 35 37 34 30 20 29 25 13 13 30 28 20 23 27 28 28 29 31 34 35 37 37 35 38 36 32 35 58 72 78 77 75 71 69 47 65 63
36 36 33 33 35 35 33 35 28 32 27 26 20 15 21 22 22 22 19 23 25 25 26 32 34 35 36 37 38 38 39 41 37 34 37 64 76 79 77 73 69 68 56 77
39 40 33 33 35 35 36 34 31 25 30 28 20 19 28 19 33 26 19 11 18 30 29 33 37 38 40 37 38 37 35 32 32 34 32 47 71 78 78 76 74 49 64 52
40 43 35 36 34 38 36 28 28 31 29 30 29 21 21 14 13 9 19 29 21 27 32 36 32 36 36 35 36 38 35 33 34 31 29 39 57 74 79 78 76 78 51 38
43 45 43 38 35 40 33 27 26 30 30 34 33 31 26 33 28 33 29 23 33 31 37 33 32 36 32 35 35 37 36 32 33 30 28 34 48 65 75 77 77 78 72 67
44 46 47 43 36 30 26 34 31 36 37 38 38 36 28 32 31 33 42 35 39 38 38 41 33 32 32 36 31 33 34 31 31 29 29 32 44 57 67 75 75 64 61 72
47 48 46 47 45 42 36 32 32 34 38 37 37 40 34 36 38 38 40 45 45 37 41 45 34 32 31 33 36 29 33 32 34 31 30 35 40 49 59 68 65 69 55 53
49 51 51 49 44 41 33 31 30 28 30 32 27 33 35 38 41 41 42 45 48 50 49 47 32 36 35 32 31 27 34 34 30 33 29 25 25 48 54 62 64 53 52 40
47 51 46 46 37 34 33 27 27 19 16 22 30 28 40 40 44 42 41 42 44 43 38 34 34 33 25 31 32 27 33 36 31 30 30 36 22 39 52 56 57 64 69 46
47 38 37 38 30 31 26 16 12 12 23 22 33 35 37 39 40 38 38 38 39 40 37 36 35 33 24 29 36 35 32 40 34 33 32 31 31 38 52 52 52 59 41 34
44 37 34 24 27 26 23 24 23 24 18 24 35 39 41 39 39 37 33 34 35 37 40 39 38 35 32 34 35 35 33 41 38 33 33 33 35 37 46 49 50 43 62 30
28 33 36 22 27 31 23 26 25 33 22 33 35 38 34 38 38 32 36 37 35 38 40 39 38 38 35 36 35 35 35 37 41 35 33 27 25 34 44 50 50 40 40 22
27 28 26 36 25 33 28 31 35 36 32 35 35 33 34 31 34 23 37 40 38 38 37 36 36 36 28 35 33 33 35 35 41 34 33 29 21 28 53 59 60 39 25 23
28 27 28 28 28 27 29 32 36 38 40 37 35 30 29 33 37 36 36 39 42 40 40 36 31 26 30 37 35 35 36 43 39 35 30 25 22 24 44 56 53 57 32 29
24 25 23 21 24 29 34 35 37 35 36 27 26 27 29 31 34 28 18 15 20 31 38 36 22 30 33 32 36 40 40 38 37 31 28 26 22 19 36 50 35 27 27 33
22 24 22 23 25 32 33 33 34 37 28 26 25 26 31 29 14 14 19 18 24 17 18 31 26 35 31 36 40 39 38 38 34 30 25 24 21 27 43 48 31 37 26 24
22 23 23 29 27 33 28 36 35 27 23 24 26 30 24 14 15 18 19 20 17 16 14 31 34 35 34 40 39 36 38 33 33 29 23 23 22 29 46 40 41 27 23 21
24 23 26 26 30 26 35 32 25 20 22 24 27 22 21 6 15 19 15 13 8 11 17 31 32 34 39 38 37 36 35 33 28 24 23 22 26 37 38 40 30 30 26 23
19 21 22 28 32 34 21 18 18 17 21 25 22 16 6 5 13 16 9 10 10 24 27 32 35 40 38 38 38 38 36 28 29 23 20 28 36 40 43 35 27 23 18 14
Wind_Direction
346 344 343 345 339 329 319 309 307 305 291 285 289 287 269 270 267 272 264 266 258 255 257 257 254 252 249 244 242 240 236 235 238 237 239 240 245 244 247 252 254 256 258 258
338 345 338 335 330 322 317 310 311 304 298 286 279 274 276 281 284 275 270 256 244 246 251 256 253 252 249 246 243 239 235 233 236 236 238 240 240 240 243 246 249 251 253 254
335 336 333 332 332 325 323 314 314 307 302 277 277 278 281 241 256 265 248 245 242 240 250 260 256 243 239 241 246 242 232 229 232 233 235 237 238 236 234 248 250 251 253 253
331 331 331 331 330 323 325 315 315 306 299 299 269 268 281 277 271 301 249 272 242 240 247 251 255 249 249 245 246 246 234 226 228 229 231 232 236 237 235 246 248 250 252 253
326 326 326 328 325 321 321 315 317 310 297 293 302 293 344 162 275 259 249 257 240 246 249 249 251 255 253 243 239 245 241 228 228 226 226 228 232 235 235 237 244 245 249 252
321 328 326 326 326 322 321 319 322 319 300 295 311 265 289 264 242 250 244 212 248 256 257 253 255 261 262 255 244 243 241 240 231 228 224 224 228 232 235 236 242 244 245 249
316 318 320 321 323 323 319 314 321 313 284 288 289 266 285 263 316 279 262 264 285 277 269 257 255 253 254 258 253 245 241 240 236 231 224 223 223 227 232 235 238 236 244 245
319 324 318 319 318 318 317 311 319 314 310 270 277 296 318 291 296 287 264 263 271 273 273 268 258 254 254 251 253 249 249 247 245 240 228 222 223 223 226 232 236 233 242 244
315 320 319 317 314 315 313 308 315 305 302 287 285 299 263 234 229 251 265 264 258 265 277 277 268 262 255 256 258 262 253 246 247 246 236 226 222 221 222 227 233 238 241 230
316 318 321 318 314 314 308 310 313 299 292 288 284 272 294 258 237 228 238 260 249 273 279 279 271 261 260 252 254 258 258 251 245 248 241 232 223 220 221 223 227 239 220 249
314 314 325 318 314 308 307 294 296 294 283 283 282 277 283 300 281 248 256 257 255 271 285 283 266 260 256 254 252 250 254 246 239 245 247 234 226 219 221 221 227 231 230 233
311 313 318 319 312 302 298 307 299 293 294 276 275 262 263 266 267 276 238 251 280 275 274 276 269 270 270 263 257 256 250 240 238 242 246 233 228 220 218 220 224 229 233 240
312 313 315 317 313 303 270 290 278 273 274 273 274 265 263 261 260 272 266 268 271 272 274 272 273 274 268 263 256 257 252 242 230 239 238 235 222 221 218 217 222 223 241 240
311 314 312 310 305 300 296 283 280 277 275 279 267 272 276 275 273 270 270 261 254 254 263 271 274 265 266 257 257 255 242 239 230 231 232 232 223 223 218 218 220 223 232 229
309 315 313 307 305 301 298 287 288 284 280 272 281 277 287 282 279 277 270 263 260 256 256 265 265 265 261 261 252 250 234 237 223 227 231 239 229 224 219 218 218 220 228 226
307 312 306 302 307 301 294 306 300 298 281 274 284 267 280 285 284 280 278 267 258 257 258 254 258 263 260 253 248 242 233 228 217 228 228 237 228 219 216 216 218 217 218 233
314 312 304 316 309 308 312 300 278 291 272 284 277 285 284 281 282 286 283 270 258 258 257 257 257 260 261 248 242 243 233 222 220 229 231 236 236 224 215 209 211 216 216 232
319 301 304 323 321 319 319 295 307 289 278 278 281 289 295 289 281 281 278 275 264 258 257 260 258 258 261 238 231 235 230 219 222 225 233 230 224 225 219 207 212 215 219 183
322 314 285 312 314 316 306 313 300 296 285 286 291 296 290 283 281 289 281 276 266 261 262 263 258 253 252 236 230 223 220 216 219 215 225 237 224 220 219 207 202 193 218 215
294 296 296 310 298 303 311 311 304 302 294 303 303 298 295 292 285 278 272 271 271 267 264 261 258 255 233 223 218 205 209 204 209 210 219 232 234 215 204 207 200 180 182 184
299 293 296 294 292 296 300 291 288 295 300 305 304 299 302 303 299 296 285 279 272 262 258 259 256 244 209 212 202 195 199 204 204 209 216 222 232 215 213 216 220 214 229 235
302 302 299 293 294 303 297 297 299 300 306 305 302 307 305 306 306 306 313 313 293 267 250 248 229 194 202 202 192 191 198 197 194 205 214 218 219 204 220 212 204 220 188 173
306 298 298 295 301 300 306 304 304 306 310 312 311 304 315 320 319 313 314 309 280 255 247 222 197 184 194 186 184 187 188 188 186 194 199 203 198 190 199 189 167 165 142 142
304 309 304 300 305 308 309 305 306 305 311 313 311 315 322 352 323 333 319 317 291 263 221 176 172 179 185 179 178 177 176 180 183 194 199 190 184 186 206 160 146 147 141 146
310 311 308 310 311 311 311 302 303 307 309 312 317 320 320 294 324 331 345 359 352 184 193 151 158 167 171 172 165 162 169 176 182 187 197 174 169 187 159 141 141 127 139 133
318 315 319 314 316 318 309 299 308 316 316 326 335 337 293 266 322 346 27 35 76 108 122 144 151 157 161 162 156 161 168 172 174 187 175 161 170 167 130 123 139 151 165 159